Погода в Кукелево

Россия / Хабаровский край     47°45′33″N   134°46′19″E
темп.,
°C
ветер,
м/с
пор.,
м/с
влажн.,
%
обл.,
%
осадки,
мм/ч
давл.,
гПа
погр.,
м
22 апреля, чт
чт2201:00+9юв22360 0.0 102115
04:00+8юв22390 0.0 102111
07:00+7вюв22410 0.0 102330
10:00+17ююв33240 0.0 1022435
13:00+23ю34165 0.0 10211323
16:00+25ююз45165 0.0 10191846
19:00+22юз47245 0.0 1019170
22:00+17ю45325 0.0 101966
23 апреля, пт
пт2301:00+14ююз3640100 0.0 102083
04:00+13ююз3845100 0.0 1020141
07:00+12ю2346100 0.0 102167
10:00+16ююз5733100 0.0 1021534
13:00+19юз7832100 0.0 10201011
16:00+21юз6936100 0.0 10191614
19:00+18зюз61145100 0.0 1019882
22:00+15зсз61054100 0.0 1019888
24 апреля, сб
сб2401:00+12зсз4761100 0.1 1020635
04:00+10сз6835100 0.1 10201266
07:00+8сз5738100 0.0 1021885
10:00+7св4464100 0.0 10211091
13:00+8ссз3458100 0.0 1020865
16:00+13сз67234 0.0 10172436
19:00+12ссз692280 0.0 10161338
22:00+8ссз510270 0.0 1017324
25 апреля, вс
вс2501:00+5сз34348 0.0 101659
04:00+5сз6123096 0.0 1014501
07:00+4сз813375 0.0 10151225
10:00+7с7936100 0.0 10172339
13:00+9с5722100 0.0 10183364
16:00+10ссз4819100 0.0 10173173
19:00+10сз581711 0.0 10171362
22:00+4вюв22360 0.0 101822
26 апреля, пн
пн2601:00+3ююз22300 0.0 101820
04:00+1юз343447 0.0 101945
07:00+2ююз363798 0.0 1019126
10:00+10юз462392 0.0 1018722
13:00+14юз4518100 0.0 10161669
16:00+16юз3518100 0.0 10131976
19:00+14ююв3427100 0.0 101280
22:00+11ююв4833100 0.0 1011145